Location: George Washington National Forest Helicopter Landing Site
(38.6463°N, 79.0851°W)
Time: 08:09:16
(UTC-04:00)

Tiros 1 - Pass Details

Date: 30 August 2019
Orbit: 631 x 664 km, 48.4° (Epoch: 16 September)

Event Time Altitude Azimuth Distance (km) Brightness Sun altitude
Exits shadow 03:46:34 17° 106° (ESE) 1,601 9.4 -31.0°
Drops below altitude 10° 03:47:42 10° 110° (ESE) 2,026 9.9 -30.8°
Sets 03:50:04 0° 114° (ESE) 2,938 10.8 -30.5°
